Timestamp, Local Timestamp, ID, PM25, PM10, Co2, Temperature, Relative Humidity, Monitor ID, O3
2022-03-15T13:25:21Z,03/15/22 09:25,7656656,0.446,0.001,1721,20.0,55.8,55,0.0
2022-03-15T13:26:21Z,03/15/22 09:26,7656670,0.653,0.001,1811,20.1,54.6,55,0.0
2022-03-15T13:27:21Z,03/15/22 09:27,7656686,0.563,0.001,1840,20.1,53.5,55,0.0
2022-03-15T13:28:21Z,03/15/22 09:28,7656702,0.5389999999999999,0.004,1821,20.1,52.7,55,0.0
2022-03-15T13:29:21Z,03/15/22 09:29,7656718,0.45899999999999996,0.0,1858,20.3,51.8,55,0.0
2022-03-15T13:30:21Z,03/15/22 09:30,7656739,0.571,0.002,1864,20.3,51.1,55,1.0
2022-03-15T13:31:21Z,03/15/22 09:31,7656750,0.544,0.002,1893,20.4,50.6,55,2.0
2022-03-15T13:32:21Z,03/15/22 09:32,7656766,0.47300000000000003,0.001,1894,20.5,49.8,55,1.0
2022-03-15T13:33:21Z,03/15/22 09:33,7656783,0.496,0.002,1916,20.6,49.1,55,1.0
2022-03-15T13:34:21Z,03/15/22 09:34,7656799,0.571,0.002,1897,20.7,48.4,55,3.0
2022-03-15T13:35:20Z,03/15/22 09:35,7656814,0.571,0.005,1927,20.8,47.9,55,2.0
2022-03-15T13:36:20Z,03/15/22 09:36,7656830,0.628,0.005,1936,20.9,47.4,55,2.0
2022-03-15T13:37:21Z,03/15/22 09:37,7656844,0.534,0.0,1926,21.0,46.9,55,3.0
2022-03-15T13:38:21Z,03/15/22 09:38,7656860,0.562,0.002,1968,21.1,46.4,55,3.0
2022-03-15T13:39:21Z,03/15/22 09:39,7656876,0.593,0.001,1969,21.2,45.9,55,3.0
2022-03-15T13:40:21Z,03/15/22 09:40,7656892,0.528,0.0,1983,21.3,45.5,55,3.0
2022-03-15T13:41:21Z,03/15/22 09:41,7656907,0.49800000000000005,0.0,1988,21.3,45.0,55,4.0
2022-03-15T13:42:20Z,03/15/22 09:42,7656921,0.609,0.0,1969,21.4,44.6,55,3.0
2022-03-15T13:43:20Z,03/15/22 09:43,7656936,0.609,0.003,2024,21.5,44.2,55,3.0
2022-03-15T13:44:20Z,03/15/22 09:44,7656952,0.5900000000000001,0.001,2058,21.5,43.9,55,3.0
2022-03-15T13:45:20Z,03/15/22 09:45,7656968,0.545,0.001,2027,21.6,43.6,55,3.0
2022-03-15T13:46:20Z,03/15/22 09:46,7656985,0.639,0.0,2073,21.7,43.3,55,4.0
2022-03-15T13:47:20Z,03/15/22 09:47,7656999,0.62,0.001,2062,21.8,42.9,55,4.0
2022-03-15T13:48:20Z,03/15/22 09:48,7657015,0.521,0.001,2054,21.8,42.7,55,4.0
2022-03-15T13:49:20Z,03/15/22 09:49,7657029,0.505,0.002,2068,21.9,42.4,55,4.0
2022-03-15T13:50:20Z,03/15/22 09:50,7657044,0.682,0.002,2036,22.0,42.1,55,4.0
2022-03-15T13:51:20Z,03/15/22 09:51,7657059,0.525,0.0,2067,22.0,41.9,55,4.0
2022-03-15T13:52:20Z,03/15/22 09:52,7657075,0.7030000000000001,0.002,2104,22.1,41.7,55,5.0
2022-03-15T13:53:20Z,03/15/22 09:53,7657092,0.504,0.003,2118,22.2,41.5,55,5.0
2022-03-15T13:54:20Z,03/15/22 09:54,7657107,0.542,0.001,2115,22.2,41.3,55,5.0
2022-03-15T13:55:20Z,03/15/22 09:55,7657127,0.53,0.001,2129,22.2,41.1,55,4.0
2022-03-15T13:56:21Z,03/15/22 09:56,7657139,0.507,0.0,2138,22.2,40.9,55,4.0
2022-03-15T13:57:21Z,03/15/22 09:57,7657153,0.513,0.0,2177,22.3,40.6,55,5.0
2022-03-15T13:58:21Z,03/15/22 09:58,7657169,0.5,0.004,2148,22.3,40.4,55,4.0
2022-03-15T13:59:20Z,03/15/22 09:59,7657185,0.545,0.001,2170,22.4,40.3,55,4.0
2022-03-15T14:00:20Z,03/15/22 10:00,7657199,0.642,0.0,2201,22.4,40.1,55,4.0
2022-03-15T14:01:20Z,03/15/22 10:01,7657214,0.659,0.001,2158,22.4,39.9,55,5.0
2022-03-15T14:02:20Z,03/15/22 10:02,7657230,0.558,0.0,2155,22.5,39.7,55,5.0
2022-03-15T14:03:20Z,03/15/22 10:03,7657244,0.512,0.001,2142,22.5,39.5,55,5.0
2022-03-15T14:04:20Z,03/15/22 10:04,7657260,0.5780000000000001,0.001,2096,22.5,39.2,55,5.0
2022-03-15T14:05:20Z,03/15/22 10:05,7657276,0.5599999999999999,0.001,2109,22.5,39.0,55,5.0
2022-03-15T14:06:20Z,03/15/22 10:06,7657294,0.548,0.001,2105,22.5,38.9,55,5.0
2022-03-15T14:07:20Z,03/15/22 10:07,7657308,0.485,0.001,2101,22.5,38.7,55,5.0
2022-03-15T14:08:20Z,03/15/22 10:08,7657324,0.5599999999999999,0.001,2109,22.5,38.6,55,5.0
2022-03-15T14:09:20Z,03/15/22 10:09,7657340,0.588,0.003,2173,22.5,38.6,55,5.0
2022-03-15T14:10:20Z,03/15/22 10:10,7657356,0.587,0.001,2169,22.5,38.4,55,5.0
2022-03-15T14:11:20Z,03/15/22 10:11,7657373,0.5980000000000001,0.005,2160,22.5,38.4,55,5.0
2022-03-15T14:12:20Z,03/15/22 10:12,7657388,0.553,0.002,2169,22.5,38.3,55,5.0
2022-03-15T14:13:21Z,03/15/22 10:13,7657404,0.6839999999999999,0.003,2204,22.6,38.2,55,5.0
2022-03-15T14:14:21Z,03/15/22 10:14,7657419,0.557,0.001,2182,22.6,38.2,55,6.0
2022-03-15T14:15:20Z,03/15/22 10:15,7657434,0.756,0.0,2256,22.6,38.1,55,5.0
2022-03-15T14:16:20Z,03/15/22 10:16,7657449,0.714,0.009,2234,22.6,38.0,55,5.0
2022-03-15T14:17:20Z,03/15/22 10:17,7657465,0.669,0.0,2238,22.6,38.0,55,5.0
2022-03-15T14:18:20Z,03/15/22 10:18,7657480,0.514,0.002,2260,22.6,37.9,55,5.0
2022-03-15T14:19:20Z,03/15/22 10:19,7657497,0.625,0.002,2234,22.6,37.9,55,5.0
2022-03-15T14:20:20Z,03/15/22 10:20,7657512,0.631,0.002,2213,22.6,37.8,55,5.0
2022-03-15T14:21:20Z,03/15/22 10:21,7657528,0.45499999999999996,0.004,2221,22.6,37.7,55,5.0
2022-03-15T14:22:20Z,03/15/22 10:22,7657544,0.648,0.0,2226,22.6,37.7,55,5.0
2022-03-15T14:23:20Z,03/15/22 10:23,7657560,0.746,0.001,2234,22.6,37.7,55,6.0
2022-03-15T14:24:20Z,03/15/22 10:24,7657576,0.585,0.0,2256,22.6,37.6,55,6.0
2022-03-15T14:25:20Z,03/15/22 10:25,7657593,0.744,0.0,2247,22.6,37.5,55,6.0
2022-03-15T14:26:20Z,03/15/22 10:26,7657608,0.647,0.001,2243,22.6,37.5,55,6.0
2022-03-15T14:27:20Z,03/15/22 10:27,7657624,0.731,0.001,2260,22.6,37.4,55,6.0
2022-03-15T14:28:20Z,03/15/22 10:28,7657640,0.584,0.004,2278,22.6,37.4,55,5.0
2022-03-15T14:29:20Z,03/15/22 10:29,7657656,0.5940000000000001,0.0,2297,22.6,37.4,55,5.0
2022-03-15T14:30:20Z,03/15/22 10:30,7657673,0.515,0.001,2284,22.6,37.3,55,5.0
2022-03-15T14:31:20Z,03/15/22 10:31,7657692,0.6719999999999999,0.0,2284,22.6,37.3,55,5.0
2022-03-15T14:32:20Z,03/15/22 10:32,7657704,0.7190000000000001,0.001,2231,22.6,37.2,55,5.0
2022-03-15T14:33:20Z,03/15/22 10:33,7657720,0.592,0.002,2266,22.7,37.2,55,5.0
2022-03-15T14:34:20Z,03/15/22 10:34,7657736,0.665,0.001,2293,22.7,37.1,55,6.0
2022-03-15T14:35:20Z,03/15/22 10:35,7657752,0.6719999999999999,0.0,2262,22.7,37.1,55,5.0
2022-03-15T14:36:20Z,03/15/22 10:36,7657769,0.7110000000000001,0.0,2280,22.7,37.0,55,6.0
2022-03-15T14:37:20Z,03/15/22 10:37,7657784,0.613,0.002,2280,22.7,36.9,55,5.0
2022-03-15T14:38:20Z,03/15/22 10:38,7657800,0.744,0.003,2245,22.7,36.9,55,6.0
2022-03-15T14:39:20Z,03/15/22 10:39,7657816,0.6900000000000001,0.0,2253,22.7,36.9,55,6.0
2022-03-15T14:40:20Z,03/15/22 10:40,7657832,0.588,0.0,2276,22.7,36.8,55,6.0
2022-03-15T14:41:20Z,03/15/22 10:41,7657848,0.488,0.001,2286,22.7,36.8,55,6.0
2022-03-15T14:42:20Z,03/15/22 10:42,7657865,0.9,0.003,2272,22.8,36.8,55,6.0
2022-03-15T14:43:20Z,03/15/22 10:43,7657880,0.745,0.002,2286,22.8,36.8,55,6.0
2022-03-15T14:44:20Z,03/15/22 10:44,7657896,0.738,0.0,2290,22.8,36.7,55,6.0
2022-03-15T14:45:20Z,03/15/22 10:45,7657914,0.603,0.0,2268,22.8,36.6,55,6.0
2022-03-15T14:46:20Z,03/15/22 10:46,7657928,0.67,0.002,2290,22.8,36.6,55,6.0
2022-03-15T14:47:20Z,03/15/22 10:47,7657944,0.916,0.002,2286,22.8,36.6,55,6.0
2022-03-15T14:48:20Z,03/15/22 10:48,7657960,0.579,0.0,2277,22.8,36.5,55,6.0
2022-03-15T14:49:20Z,03/15/22 10:49,7657976,0.6519999999999999,0.002,2268,22.8,36.4,55,5.0
2022-03-15T14:50:20Z,03/15/22 10:50,7657993,0.634,0.002,2277,22.8,36.4,55,6.0
2022-03-15T14:51:20Z,03/15/22 10:51,7658008,0.642,0.0,2273,22.8,36.4,55,6.0
2022-03-15T14:52:20Z,03/15/22 10:52,7658024,0.744,0.0,2277,22.8,36.4,55,6.0
2022-03-15T14:53:20Z,03/15/22 10:53,7658040,0.7030000000000001,0.002,2264,22.8,36.3,55,6.0
2022-03-15T14:54:20Z,03/15/22 10:54,7658057,0.714,0.0,2304,22.8,36.2,55,6.0
2022-03-15T14:55:20Z,03/15/22 10:55,7658072,0.7030000000000001,0.002,2246,22.8,36.2,55,6.0
2022-03-15T14:56:20Z,03/15/22 10:56,7658089,0.692,0.001,2237,22.8,36.2,55,6.0
2022-03-15T14:57:20Z,03/15/22 10:57,7658104,0.749,0.001,2237,22.8,36.1,55,5.0
2022-03-15T14:58:20Z,03/15/22 10:58,7658121,0.635,0.001,2264,22.8,36.1,55,6.0
2022-03-15T14:59:20Z,03/15/22 10:59,7658136,0.774,0.003,2207,22.8,36.1,55,6.0
2022-03-15T15:00:20Z,03/15/22 11:00,7658152,0.688,0.002,2278,22.8,36.1,55,6.0
2022-03-15T15:01:20Z,03/15/22 11:01,7658168,0.686,0.001,2247,22.8,36.1,55,6.0
2022-03-15T15:02:20Z,03/15/22 11:02,7658184,0.5690000000000001,0.004,2251,22.8,36.1,55,5.0
2022-03-15T15:03:20Z,03/15/22 11:03,7658200,0.6799999999999999,0.001,2269,22.8,36.0,55,6.0
2022-03-15T15:04:20Z,03/15/22 11:04,7658217,0.587,0.001,2287,22.8,36.0,55,6.0
2022-03-15T15:05:20Z,03/15/22 11:05,7658233,0.713,0.001,2283,22.8,36.0,55,5.0
2022-03-15T15:06:20Z,03/15/22 11:06,7658249,0.632,0.001,2279,22.9,36.0,55,5.0
2022-03-15T15:07:20Z,03/15/22 11:07,7658264,0.768,0.0,2248,22.9,36.0,55,5.0
2022-03-15T15:08:20Z,03/15/22 11:08,7658281,0.662,0.004,2262,22.9,36.0,55,5.0
2022-03-15T15:09:20Z,03/15/22 11:09,7658296,0.643,0.002,2240,22.9,35.9,55,6.0
2022-03-15T15:10:20Z,03/15/22 11:10,7658312,0.563,0.001,2249,22.9,36.0,55,5.0
2022-03-15T15:11:20Z,03/15/22 11:11,7658328,0.6849999999999999,0.002,2303,22.9,36.0,55,5.0
2022-03-15T15:12:20Z,03/15/22 11:12,7658344,0.538,0.002,2263,22.9,36.0,55,5.0
2022-03-15T15:13:20Z,03/15/22 11:13,7658359,0.7809999999999999,0.002,2294,22.9,36.0,55,6.0
2022-03-15T15:14:20Z,03/15/22 11:14,7658375,0.599,0.004,2224,22.9,35.9,55,6.0
2022-03-15T15:15:20Z,03/15/22 11:15,7658389,0.638,0.001,2254,22.9,35.8,55,6.0
2022-03-15T15:16:20Z,03/15/22 11:16,7658404,0.635,0.001,2224,22.9,35.8,55,6.0
2022-03-15T15:17:20Z,03/15/22 11:17,7658420,0.596,0.001,2229,22.9,35.8,55,6.0
2022-03-15T15:18:20Z,03/15/22 11:18,7658436,0.62,0.001,2246,22.9,35.8,55,6.0
2022-03-15T15:19:20Z,03/15/22 11:19,7658450,0.736,0.002,2246,22.9,35.7,55,6.0
2022-03-15T15:20:20Z,03/15/22 11:20,7658466,0.764,0.001,2229,22.9,35.6,55,6.0
2022-03-15T15:21:20Z,03/15/22 11:21,7658482,0.7929999999999999,0.002,2190,22.9,35.4,55,6.0
2022-03-15T15:22:20Z,03/15/22 11:22,7658498,0.653,0.001,2143,22.9,35.3,55,6.0
2022-03-15T15:23:20Z,03/15/22 11:23,7658514,0.728,0.001,2147,22.9,35.2,55,6.0
2022-03-15T15:24:20Z,03/15/22 11:24,7658530,0.761,0.004,2066,22.9,35.0,55,6.0
2022-03-15T15:25:20Z,03/15/22 11:25,7658547,0.544,0.002,2066,22.9,35.0,55,6.0
2022-03-15T15:26:20Z,03/15/22 11:26,7658563,0.773,0.001,1990,22.9,34.9,55,6.0
2022-03-15T15:27:20Z,03/15/22 11:27,7658578,0.6980000000000001,0.001,2011,22.8,34.8,55,6.0
2022-03-15T15:28:20Z,03/15/22 11:28,7658594,0.605,0.001,1977,22.8,34.7,55,6.0
2022-03-15T15:29:20Z,03/15/22 11:29,7658610,0.63,0.003,1923,22.8,34.6,55,6.0
2022-03-15T15:30:20Z,03/15/22 11:30,7658626,0.687,0.0,1927,22.7,34.6,55,6.0
2022-03-15T15:31:20Z,03/15/22 11:31,7658643,0.63,0.006,1914,22.7,34.6,55,6.0
2022-03-15T15:32:20Z,03/15/22 11:32,7658659,0.77,0.001,1898,22.7,34.5,55,6.0
2022-03-15T15:33:20Z,03/15/22 11:33,7658674,0.8089999999999999,0.001,1881,22.7,34.4,55,6.0
2022-03-15T15:34:20Z,03/15/22 11:34,7658691,0.702,0.0,1809,22.7,34.4,55,7.0
2022-03-15T15:35:20Z,03/15/22 11:35,7658706,0.655,0.005,1820,22.7,34.3,55,6.0
2022-03-15T15:36:20Z,03/15/22 11:36,7658723,0.641,0.001,1785,22.7,34.3,55,7.0
2022-03-15T15:37:20Z,03/15/22 11:37,7658738,0.619,0.002,1755,22.8,34.2,55,7.0
2022-03-15T15:38:20Z,03/15/22 11:38,7658755,0.867,0.0,1719,22.8,34.1,55,6.0
2022-03-15T15:39:20Z,03/15/22 11:39,7658770,0.752,0.001,1702,22.8,34.0,55,6.0
2022-03-15T15:40:20Z,03/15/22 11:40,7658787,0.6599999999999999,0.0,1698,22.9,33.9,55,7.0
2022-03-15T15:41:20Z,03/15/22 11:41,7658802,0.731,0.004,1669,22.9,33.8,55,7.0
2022-03-15T15:42:20Z,03/15/22 11:42,7658818,0.635,0.004,1639,22.9,33.8,55,7.0
2022-03-15T15:43:20Z,03/15/22 11:43,7658834,0.596,0.001,1670,22.9,33.6,55,6.0
2022-03-15T15:44:20Z,03/15/22 11:44,7658850,0.671,0.001,1599,22.9,33.6,55,6.0
2022-03-15T15:45:20Z,03/15/22 11:45,7658866,0.7110000000000001,0.003,1592,22.9,33.5,55,7.0
2022-03-15T15:46:20Z,03/15/22 11:46,7658882,0.665,0.001,1611,22.9,33.4,55,7.0
2022-03-15T15:47:20Z,03/15/22 11:47,7658898,0.675,0.0,1575,22.9,33.3,55,7.0
2022-03-15T15:48:20Z,03/15/22 11:48,7658914,0.772,0.002,1589,22.9,33.3,55,7.0
2022-03-15T15:49:20Z,03/15/22 11:49,7658931,0.754,0.002,1546,22.9,33.2,55,7.0
2022-03-15T15:50:20Z,03/15/22 11:50,7658946,0.693,0.0,1545,22.9,33.1,55,6.0
2022-03-15T15:51:20Z,03/15/22 11:51,7658963,0.714,0.0,1528,22.9,33.1,55,7.0
2022-03-15T15:52:20Z,03/15/22 11:52,7658978,0.758,0.001,1499,22.9,33.1,55,7.0
2022-03-15T15:53:20Z,03/15/22 11:53,7658994,0.721,0.002,1496,22.9,33.0,55,7.0
2022-03-15T15:54:20Z,03/15/22 11:54,7659010,0.67,0.002,1484,22.9,33.0,55,7.0
2022-03-15T15:55:20Z,03/15/22 11:55,7659026,0.671,0.001,1467,22.9,32.9,55,7.0
2022-03-15T15:56:20Z,03/15/22 11:56,7659042,0.705,0.003,1450,22.9,32.9,55,7.0
2022-03-15T15:57:20Z,03/15/22 11:57,7659058,0.6769999999999999,0.001,1484,22.9,32.8,55,7.0
2022-03-15T15:58:20Z,03/15/22 11:58,7659074,0.62,0.001,1443,22.9,32.8,55,7.0
2022-03-15T15:59:20Z,03/15/22 11:59,7659091,0.755,0.001,1439,22.9,32.8,55,7.0
2022-03-15T16:00:20Z,03/15/22 12:00,7659106,0.769,0.002,1426,22.9,32.8,55,7.0
2022-03-15T16:01:20Z,03/15/22 12:01,7659123,0.773,0.001,1434,22.9,32.7,55,7.0
2022-03-15T16:02:20Z,03/15/22 12:02,7659139,0.647,0.001,1385,22.9,32.7,55,7.0
2022-03-15T16:03:20Z,03/15/22 12:03,7659154,0.7,0.002,1434,23.0,32.6,55,7.0
2022-03-15T16:04:20Z,03/15/22 12:04,7659170,0.526,0.002,1392,23.0,32.6,55,7.0
2022-03-15T16:05:20Z,03/15/22 12:05,7659186,0.758,0.001,1424,23.0,32.7,55,7.0
2022-03-15T16:06:20Z,03/15/22 12:06,7659202,0.641,0.004,1462,23.1,32.8,55,7.0
2022-03-15T16:07:20Z,03/15/22 12:07,7659218,0.639,0.0,1512,23.1,33.0,55,7.0
2022-03-15T16:08:20Z,03/15/22 12:08,7659235,0.701,0.001,1552,23.1,33.1,55,7.0
2022-03-15T16:09:20Z,03/15/22 12:09,7659249,0.697,0.002,1624,23.2,33.3,55,7.0
2022-03-15T16:10:20Z,03/15/22 12:10,7659266,0.701,0.001,1610,23.2,33.4,55,7.0
2022-03-15T16:11:20Z,03/15/22 12:11,7659281,0.761,0.001,1614,23.2,33.5,55,7.0
2022-03-15T16:12:20Z,03/15/22 12:12,7659298,0.794,0.001,1629,23.2,33.6,55,7.0
2022-03-15T16:13:20Z,03/15/22 12:13,7659313,0.721,0.002,1660,23.2,33.6,55,8.0
2022-03-15T16:14:20Z,03/15/22 12:14,7659330,0.7849999999999999,0.001,1682,23.2,33.6,55,7.0
2022-03-15T16:15:20Z,03/15/22 12:15,7659345,0.7969999999999999,0.001,1679,23.2,33.7,55,7.0
2022-03-15T16:16:20Z,03/15/22 12:16,7659361,0.597,0.0,1675,23.2,33.7,55,7.0
2022-03-15T16:17:20Z,03/15/22 12:17,7659377,0.747,0.003,1725,23.2,33.8,55,7.0
2022-03-15T16:18:20Z,03/15/22 12:18,7659394,0.771,0.0,1717,23.2,33.8,55,7.0
2022-03-15T16:19:20Z,03/15/22 12:19,7659409,0.755,0.001,1771,23.2,33.9,55,7.0
2022-03-15T16:20:20Z,03/15/22 12:20,7659426,0.665,0.001,1756,23.2,33.9,55,7.0
2022-03-15T16:21:20Z,03/15/22 12:21,7659441,0.558,0.003,1783,23.2,33.9,55,7.0
2022-03-15T16:22:20Z,03/15/22 12:22,7659458,0.744,0.003,1783,23.2,34.0,55,7.0
2022-03-15T16:23:20Z,03/15/22 12:23,7659473,0.657,0.006,1795,23.2,34.0,55,7.0
2022-03-15T16:24:20Z,03/15/22 12:24,7659489,0.738,0.0,1803,23.2,34.1,55,7.0
2022-03-15T16:25:20Z,03/15/22 12:25,7659505,0.718,0.002,1835,23.2,34.2,55,7.0
2022-03-15T16:26:20Z,03/15/22 12:26,7659521,0.78,0.0,1883,23.2,34.2,55,7.0
2022-03-15T16:27:20Z,03/15/22 12:27,7659537,0.649,0.002,1859,23.2,34.3,55,7.0
2022-03-15T16:28:20Z,03/15/22 12:28,7659554,0.74,0.001,1859,23.2,34.3,55,7.0
2022-03-15T16:29:20Z,03/15/22 12:29,7659569,0.618,0.0,1871,23.2,34.3,55,7.0
2022-03-15T16:30:20Z,03/15/22 12:30,7659587,0.8460000000000001,0.0,1875,23.2,34.3,55,7.0
2022-03-15T16:31:20Z,03/15/22 12:31,7659601,0.791,0.001,1879,23.2,34.3,55,6.0
2022-03-15T16:32:20Z,03/15/22 12:32,7659617,0.9259999999999999,0.001,1916,23.2,34.4,55,6.0
2022-03-15T16:33:20Z,03/15/22 12:33,7659632,0.725,0.001,1940,23.2,34.4,55,7.0
2022-03-15T16:34:20Z,03/15/22 12:34,7659649,0.6719999999999999,0.003,1948,23.2,34.4,55,7.0
2022-03-15T16:35:20Z,03/15/22 12:35,7659663,0.759,0.0,1916,23.2,34.4,55,7.0
2022-03-15T16:36:20Z,03/15/22 12:36,7659679,0.629,0.001,1932,23.2,34.4,55,7.0
2022-03-15T16:37:20Z,03/15/22 12:37,7659695,0.739,0.002,1903,23.2,34.3,55,6.0
2022-03-15T16:38:20Z,03/15/22 12:38,7659711,0.775,0.002,1862,23.2,34.1,55,7.0
2022-03-15T16:39:20Z,03/15/22 12:39,7659727,0.74,0.001,1790,23.2,34.0,55,6.0
2022-03-15T16:40:20Z,03/15/22 12:40,7659743,0.7969999999999999,0.001,1798,23.1,33.8,55,7.0
2022-03-15T16:41:20Z,03/15/22 12:41,7659759,0.773,0.001,1786,23.1,33.8,55,7.0
2022-03-15T16:42:20Z,03/15/22 12:42,7659776,0.678,0.003,1777,23.1,33.7,55,7.0
2022-03-15T16:43:20Z,03/15/22 12:43,7659791,0.741,0.003,1784,23.1,33.7,55,7.0
2022-03-15T16:44:20Z,03/15/22 12:44,7659807,0.779,0.001,1753,23.0,33.6,55,7.0
2022-03-15T16:45:20Z,03/15/22 12:45,7659824,0.819,0.0,1764,23.0,33.6,55,7.0
2022-03-15T16:46:20Z,03/15/22 12:46,7659839,0.726,0.003,1752,22.9,33.6,55,7.0
2022-03-15T16:47:20Z,03/15/22 12:47,7659856,1.0939999999999999,0.001,1751,22.9,33.6,55,7.0
2022-03-15T16:48:20Z,03/15/22 12:48,7659871,0.701,0.001,1739,22.9,33.6,55,7.0
2022-03-15T16:49:20Z,03/15/22 12:49,7659888,0.745,0.002,1742,22.9,33.6,55,7.0
2022-03-15T16:50:20Z,03/15/22 12:50,7659904,0.701,0.001,1758,22.9,33.5,55,7.0
2022-03-15T16:51:20Z,03/15/22 12:51,7659920,0.716,0.001,1692,22.9,33.5,55,7.0
2022-03-15T16:52:20Z,03/15/22 12:52,7659935,0.8779999999999999,0.001,1711,22.9,33.4,55,7.0
2022-03-15T16:53:20Z,03/15/22 12:53,7659953,0.74,0.004,1706,22.9,33.4,55,7.0
2022-03-15T16:54:20Z,03/15/22 12:54,7659967,0.782,0.001,1684,22.9,33.3,55,7.0
2022-03-15T16:55:20Z,03/15/22 12:55,7659984,0.725,0.001,1691,22.9,33.3,55,7.0
2022-03-15T16:56:20Z,03/15/22 12:56,7659999,0.722,0.001,1666,22.9,33.3,55,7.0
2022-03-15T16:57:20Z,03/15/22 12:57,7660015,0.753,0.003,1640,22.9,33.2,55,7.0
2022-03-15T16:58:20Z,03/15/22 12:58,7660031,0.8,0.004,1617,22.9,33.2,55,7.0
2022-03-15T16:59:20Z,03/15/22 12:59,7660047,0.735,0.0,1629,22.9,33.1,55,7.0
2022-03-15T17:00:20Z,03/15/22 13:00,7660063,0.6,0.003,1622,22.9,33.1,55,7.0
2022-03-15T17:01:20Z,03/15/22 13:01,7660079,0.615,0.0,1618,23.0,33.0,55,7.0
2022-03-15T17:02:20Z,03/15/22 13:02,7660095,0.659,0.001,1596,23.0,32.9,55,7.0
2022-03-15T17:03:20Z,03/15/22 13:03,7660112,0.762,0.0,1579,23.0,32.8,55,7.0
2022-03-15T17:04:20Z,03/15/22 13:04,7660127,0.76,0.002,1558,23.0,32.8,55,7.0
2022-03-15T17:05:20Z,03/15/22 13:05,7660143,0.725,0.001,1580,23.0,32.8,55,8.0
2022-03-15T17:06:20Z,03/15/22 13:06,7660159,0.596,0.001,1569,23.0,32.7,55,7.0
2022-03-15T17:07:20Z,03/15/22 13:07,7660175,0.761,0.001,1544,23.0,32.7,55,7.0
2022-03-15T17:08:20Z,03/15/22 13:08,7660192,0.714,0.0,1543,23.0,32.7,55,7.0
2022-03-15T17:09:20Z,03/15/22 13:09,7660207,0.8,0.001,1576,23.0,32.6,55,7.0
2022-03-15T17:10:20Z,03/15/22 13:10,7660223,0.655,0.002,1561,23.0,32.6,55,7.0
2022-03-15T17:11:20Z,03/15/22 13:11,7660239,0.648,0.003,1582,23.0,32.7,55,7.0
2022-03-15T17:12:20Z,03/15/22 13:12,7660255,0.6910000000000001,0.002,1657,23.0,32.8,55,7.0
2022-03-15T17:13:20Z,03/15/22 13:13,7660271,0.683,0.001,1668,23.0,32.9,55,7.0
2022-03-15T17:14:20Z,03/15/22 13:14,7660287,0.773,0.001,1749,23.1,33.1,55,6.0
2022-03-15T17:15:20Z,03/15/22 13:15,7660304,0.696,0.0,1677,23.1,33.1,55,6.0
2022-03-15T17:16:20Z,03/15/22 13:16,7660319,0.776,0.001,1688,23.1,33.1,55,6.0
2022-03-15T17:17:20Z,03/15/22 13:17,7660335,0.633,0.0,1681,23.2,33.0,55,7.0
2022-03-15T17:18:20Z,03/15/22 13:18,7660352,0.645,0.0,1694,23.2,32.9,55,7.0
2022-03-15T17:19:20Z,03/15/22 13:19,7660367,0.721,0.002,1652,23.2,32.9,55,7.0
2022-03-15T17:20:20Z,03/15/22 13:20,7660384,0.647,0.001,1690,23.2,32.8,55,7.0
2022-03-15T17:21:20Z,03/15/22 13:21,7660400,0.5690000000000001,0.001,1641,23.2,32.7,55,6.0
2022-03-15T17:22:20Z,03/15/22 13:22,7660415,0.807,0.0,1649,23.2,32.7,55,7.0
2022-03-15T17:23:20Z,03/15/22 13:23,7660431,0.76,0.002,1630,23.2,32.6,55,7.0
2022-03-15T17:24:20Z,03/15/22 13:24,7660447,0.671,0.007000000000000001,1626,23.2,32.5,55,7.0
2022-03-15T17:25:20Z,03/15/22 13:25,7660465,0.722,0.004,1582,23.2,32.5,55,6.0
2022-03-15T17:26:20Z,03/15/22 13:26,7660479,0.748,0.002,1567,23.2,32.5,55,7.0
2022-03-15T17:27:20Z,03/15/22 13:27,7660495,0.6719999999999999,0.0,1596,23.2,32.5,55,6.0
2022-03-15T17:28:20Z,03/15/22 13:28,7660511,0.7190000000000001,0.001,1574,23.2,32.4,55,7.0
2022-03-15T17:29:20Z,03/15/22 13:29,7660528,0.635,0.001,1563,23.1,32.4,55,7.0
2022-03-15T17:30:20Z,03/15/22 13:30,7660544,0.769,0.002,1545,23.1,32.3,55,7.0
2022-03-15T17:31:20Z,03/15/22 13:31,7660559,0.764,0.001,1538,23.1,32.3,55,7.0
2022-03-15T17:32:20Z,03/15/22 13:32,7660575,0.689,0.001,1533,23.1,32.3,55,7.0
2022-03-15T17:33:20Z,03/15/22 13:33,7660591,0.73,0.002,1569,23.0,32.3,55,7.0
2022-03-15T17:34:20Z,03/15/22 13:34,7660607,0.6719999999999999,0.003,1547,23.0,32.3,55,7.0
2022-03-15T17:35:20Z,03/15/22 13:35,7660624,0.779,0.001,1522,23.0,32.3,55,7.0
2022-03-15T17:36:20Z,03/15/22 13:36,7660639,0.9359999999999999,0.0,1539,22.9,32.3,55,7.0
2022-03-15T17:37:20Z,03/15/22 13:37,7660656,0.8310000000000001,0.0,1510,22.9,32.3,55,7.0
2022-03-15T17:38:20Z,03/15/22 13:38,7660672,0.8220000000000001,0.0,1556,22.9,32.4,55,7.0
2022-03-15T17:39:20Z,03/15/22 13:39,7660687,0.732,0.0,1610,22.9,32.6,55,7.0
2022-03-15T17:40:20Z,03/15/22 13:40,7660704,0.842,0.001,1629,22.9,32.8,55,7.0
2022-03-15T17:41:20Z,03/15/22 13:41,7660719,0.8,0.004,1656,22.9,33.0,55,7.0
2022-03-15T17:42:20Z,03/15/22 13:42,7660737,0.76,0.002,1705,22.9,33.2,55,7.0
2022-03-15T17:43:20Z,03/15/22 13:43,7660752,0.772,0.002,1759,22.9,33.3,55,7.0
2022-03-15T17:44:20Z,03/15/22 13:44,7660767,0.826,0.002,1779,23.0,33.5,55,7.0
2022-03-15T17:45:20Z,03/15/22 13:45,7660783,0.942,0.003,1846,23.0,33.6,55,7.0
2022-03-15T17:46:20Z,03/15/22 13:46,7660799,0.8720000000000001,0.001,1843,23.0,33.7,55,6.0
2022-03-15T17:47:20Z,03/15/22 13:47,7660816,0.899,0.001,1867,23.0,33.8,55,7.0
2022-03-15T17:48:20Z,03/15/22 13:48,7660831,0.675,0.0,1896,23.0,33.9,55,6.0
2022-03-15T17:49:20Z,03/15/22 13:49,7660847,0.787,0.002,1925,23.1,33.9,55,6.0
2022-03-15T17:50:20Z,03/15/22 13:50,7660863,0.913,0.002,1925,23.1,34.0,55,7.0
2022-03-15T17:51:20Z,03/15/22 13:51,7660879,0.844,0.002,1921,23.1,34.1,55,7.0
2022-03-15T17:52:20Z,03/15/22 13:52,7660895,0.907,0.002,1963,23.1,34.1,55,7.0
2022-03-15T17:53:20Z,03/15/22 13:53,7660911,0.914,0.001,1987,23.1,34.2,55,7.0
2022-03-15T17:54:20Z,03/15/22 13:54,7660927,0.8470000000000001,0.002,1980,23.2,34.2,55,7.0
2022-03-15T17:55:20Z,03/15/22 13:55,7660944,0.953,0.004,1980,23.2,34.3,55,7.0
2022-03-15T17:56:20Z,03/15/22 13:56,7660960,0.875,0.004,1980,23.2,34.3,55,6.0
2022-03-15T17:57:20Z,03/15/22 13:57,7660975,0.917,0.001,2022,23.2,34.3,55,6.0
2022-03-15T17:58:20Z,03/15/22 13:58,7660992,0.9410000000000001,0.001,2018,23.2,34.3,55,6.0
2022-03-15T17:59:20Z,03/15/22 13:59,7661007,0.968,0.001,2031,23.2,34.3,55,6.0
2022-03-15T18:00:20Z,03/15/22 14:00,7661024,0.759,0.0,2068,23.2,34.3,55,6.0
2022-03-15T18:01:20Z,03/15/22 14:01,7661040,1.077,0.0,2035,23.2,34.4,55,6.0
2022-03-15T18:02:20Z,03/15/22 14:02,7661055,0.966,0.0,2048,23.3,34.4,55,6.0
2022-03-15T18:03:20Z,03/15/22 14:03,7661071,0.835,0.002,2048,23.3,34.4,55,6.0
2022-03-15T18:04:20Z,03/15/22 14:04,7661087,0.834,0.0,2057,23.3,34.4,55,5.0
2022-03-15T18:05:20Z,03/15/22 14:05,7661103,0.932,0.001,2124,23.3,34.4,55,5.0
2022-03-15T18:06:20Z,03/15/22 14:06,7661119,0.905,0.001,2082,23.3,34.4,55,6.0
2022-03-15T18:07:20Z,03/15/22 14:07,7661135,0.931,0.002,2095,23.3,34.4,55,6.0
2022-03-15T18:08:20Z,03/15/22 14:08,7661151,0.9279999999999999,0.005,2099,23.3,34.4,55,6.0
2022-03-15T18:09:20Z,03/15/22 14:09,7661167,1.101,0.003,2120,23.3,34.4,55,6.0
2022-03-15T18:10:20Z,03/15/22 14:10,7661184,0.89,0.004,2125,23.3,34.4,55,5.0
2022-03-15T18:11:20Z,03/15/22 14:11,7661199,0.9289999999999999,0.001,2113,23.4,34.4,55,5.0
2022-03-15T18:12:20Z,03/15/22 14:12,7661215,0.9890000000000001,0.001,2146,23.4,34.4,55,5.0
2022-03-15T18:13:20Z,03/15/22 14:13,7661231,0.852,0.0,2172,23.4,34.5,55,5.0
2022-03-15T18:14:20Z,03/15/22 14:14,7661247,0.836,0.001,2151,23.4,34.6,55,6.0
2022-03-15T18:15:20Z,03/15/22 14:15,7661263,1.048,0.002,2186,23.4,34.6,55,6.0
2022-03-15T18:16:20Z,03/15/22 14:16,7661279,0.8400000000000001,0.0,2221,23.4,34.6,55,5.0
2022-03-15T18:17:20Z,03/15/22 14:17,7661295,0.991,0.005,2225,23.4,34.6,55,6.0
2022-03-15T18:18:20Z,03/15/22 14:18,7661315,1.001,0.004,2225,23.4,34.6,55,5.0
2022-03-15T18:19:20Z,03/15/22 14:19,7661327,0.9349999999999999,0.004,2248,23.5,34.6,55,5.0